Time,TemperatureF,DewpointF,PressureIn,WindDirection,WindDirectionDegrees,WindSpeedMPH,WindSpeedGustMPH,Humidity,HourlyPrecipIn,Conditions,Clouds,dailyrainin,SoftwareType,DateUTC
2013-02-21 00:00:00,21.3,12.7,30.28,NE,37,6.0,6.0,69,0.00,,,0.00,Wunderground v.1.15,2013-02-21 05:00:00,
2013-02-21 00:06:00,21.1,12.5,30.28,NNW,344,4.0,6.0,69,0.00,,,0.00,Wunderground v.1.15,2013-02-21 05:06:00,
2013-02-21 00:15:00,21.1,12.8,30.27,North,352,4.0,6.0,70,0.00,,,0.00,Wunderground v.1.15,2013-02-21 05:15:00,
2013-02-21 00:20:00,21.1,12.8,30.27,NNE,25,6.0,11.0,70,0.00,,,0.00,Wunderground v.1.15,2013-02-21 05:20:00,
2013-02-21 00:25:00,21.1,12.5,30.27,NNE,16,6.0,11.0,69,0.00,,,0.00,Wunderground v.1.15,2013-02-21 05:25:00,
2013-02-21 00:30:00,21.1,12.5,30.28,NE,45,6.0,6.0,69,0.00,,,0.00,Wunderground v.1.15,2013-02-21 05:30:00,
2013-02-21 00:35:00,21.1,12.5,30.28,NNW,332,5.0,6.0,69,0.00,,,0.00,Wunderground v.1.15,2013-02-21 05:35:00,
2013-02-21 00:45:00,21.0,12.7,30.27,NNW,336,3.0,4.0,70,0.00,,,0.00,Wunderground v.1.15,2013-02-21 05:45:00,
2013-02-21 00:50:00,21.0,12.7,30.27,North,357,3.0,3.0,70,0.00,,,0.00,Wunderground v.1.15,2013-02-21 05:50:00,
2013-02-21 00:55:00,21.0,12.7,30.27,North,352,4.0,5.0,70,0.00,,,0.00,Wunderground v.1.15,2013-02-21 05:55:00,
2013-02-21 01:05:00,21.0,12.7,30.28,NNE,31,3.0,5.0,70,0.00,,,0.00,Wunderground v.1.15,2013-02-21 06:05:00,
2013-02-21 01:15:00,21.0,12.7,30.28,North,10,3.0,6.0,70,0.00,,,0.00,Wunderground v.1.15,2013-02-21 06:15:00,
2013-02-21 01:20:00,21.0,12.7,30.28,North,356,4.0,4.0,70,0.00,,,0.00,Wunderground v.1.15,2013-02-21 06:20:00,
2013-02-21 01:25:00,21.0,12.7,30.28,North,352,5.0,5.0,70,0.00,,,0.00,Wunderground v.1.15,2013-02-21 06:25:00,
2013-02-21 01:30:00,21.0,12.7,30.29,North,1,5.0,5.0,70,0.00,,,0.00,Wunderground v.1.15,2013-02-21 06:30:00,
2013-02-21 01:35:00,21.0,12.7,30.29,North,0,4.0,5.0,70,0.00,,,0.00,Wunderground v.1.15,2013-02-21 06:35:00,
2013-02-21 01:45:00,21.0,12.7,30.29,North,0,2.0,4.0,70,0.00,,,0.00,Wunderground v.1.15,2013-02-21 06:45:00,
2013-02-21 01:50:00,21.0,12.7,30.29,North,4,2.0,3.0,70,0.00,,,0.00,Wunderground v.1.15,2013-02-21 06:50:00,
2013-02-21 01:55:00,21.0,12.7,30.29,North,357,2.0,3.0,70,0.00,,,0.00,Wunderground v.1.15,2013-02-21 06:55:00,
2013-02-21 02:06:00,21.0,12.7,30.29,North,0,3.0,6.0,70,0.00,,,0.00,Wunderground v.1.15,2013-02-21 07:06:00,
2013-02-21 02:15:00,21.0,13.1,30.29,North,359,3.0,5.0,71,0.00,,,0.00,Wunderground v.1.15,2013-02-21 07:15:00,
2013-02-21 02:20:00,21.0,13.1,30.29,WNW,301,2.0,2.0,71,0.00,,,0.00,Wunderground v.1.15,2013-02-21 07:20:00,
2013-02-21 02:25:00,21.0,13.1,30.29,NNW,328,3.0,3.0,71,0.00,,,0.00,Wunderground v.1.15,2013-02-21 07:25:00,
2013-02-21 02:30:00,21.0,13.1,30.30,NW,322,4.0,4.0,71,0.00,,,0.00,Wunderground v.1.15,2013-02-21 07:30:00,
2013-02-21 02:40:00,21.0,13.1,30.30,NW,325,2.0,2.0,71,0.00,,,0.00,Wunderground v.1.15,2013-02-21 07:40:00,
2013-02-21 02:45:00,21.0,13.1,30.30,NNW,336,2.0,2.0,71,0.00,,,0.00,Wunderground v.1.15,2013-02-21 07:45:00,
2013-02-21 02:50:00,21.0,13.4,30.30,NNW,330,1.0,2.0,72,0.00,,,0.00,Wunderground v.1.15,2013-02-21 07:50:00,
2013-02-21 02:55:00,21.0,13.4,30.30,NW,322,2.0,6.0,72,0.00,,,0.00,Wunderground v.1.15,2013-02-21 07:55:00,
2013-02-21 03:06:00,21.1,13.5,30.30,NNW,329,3.0,3.0,72,0.00,,,0.00,Wunderground v.1.15,2013-02-21 08:06:00,
2013-02-21 03:15:00,21.1,13.5,30.29,NNW,337,2.0,2.0,72,0.00,,,0.00,Wunderground v.1.15,2013-02-21 08:15:00,
2013-02-21 03:20:00,21.0,13.4,30.29,North,8,2.0,2.0,72,0.00,,,0.00,Wunderground v.1.15,2013-02-21 08:20:00,
2013-02-21 03:25:00,21.0,13.4,30.29,North,352,1.0,2.0,72,0.00,,,0.00,Wunderground v.1.15,2013-02-21 08:25:00,
2013-02-21 03:30:00,21.0,13.4,30.29,North,349,2.0,3.0,72,0.00,,,0.00,Wunderground v.1.15,2013-02-21 08:30:00,
2013-02-21 03:40:00,21.0,13.7,30.29,NNW,340,3.0,3.0,73,0.00,,,0.00,Wunderground v.1.15,2013-02-21 08:40:00,
2013-02-21 03:45:00,21.1,13.8,30.28,North,0,3.0,6.0,73,0.00,,,0.00,Wunderground v.1.15,2013-02-21 08:45:00,
2013-02-21 03:50:00,21.1,13.8,30.28,North,0,4.0,4.0,73,0.00,,,0.00,Wunderground v.1.15,2013-02-21 08:50:00,
2013-02-21 04:00:00,21.1,13.8,30.29,NNW,347,2.0,4.0,73,0.00,,,0.00,Wunderground v.1.15,2013-02-21 09:00:00,
2013-02-21 04:06:00,21.1,13.8,30.29,North,357,2.0,5.0,73,0.00,,,0.00,Wunderground v.1.15,2013-02-21 09:06:00,
2013-02-21 04:15:00,21.1,13.8,30.29,NNW,329,3.0,5.0,73,0.00,,,0.00,Wunderground v.1.15,2013-02-21 09:15:00,
2013-02-21 04:20:00,21.1,13.8,30.29,NW,311,3.0,3.0,73,0.00,,,0.00,Wunderground v.1.15,2013-02-21 09:20:00,
2013-02-21 04:25:00,21.1,13.8,30.29,NNW,335,2.0,3.0,73,0.00,,,0.00,Wunderground v.1.15,2013-02-21 09:25:00,
2013-02-21 04:30:00,21.1,13.8,30.29,NNW,336,2.0,2.0,73,0.00,,,0.00,Wunderground v.1.15,2013-02-21 09:30:00,
2013-02-21 04:40:00,21.3,14.0,30.29,NW,313,3.0,3.0,73,0.00,,,0.00,Wunderground v.1.15,2013-02-21 09:40:00,
2013-02-21 04:45:00,21.3,14.0,30.29,NW,326,4.0,4.0,73,0.00,,,0.00,Wunderground v.1.15,2013-02-21 09:45:00,
2013-02-21 04:50:00,21.3,14.0,30.29,NNW,342,3.0,3.0,73,0.00,,,0.00,Wunderground v.1.15,2013-02-21 09:50:00,
2013-02-21 04:55:00,21.3,14.0,30.29,North,352,2.0,4.0,73,0.00,,,0.00,Wunderground v.1.15,2013-02-21 09:55:00,
2013-02-21 05:06:00,21.3,14.0,30.30,NNW,332,3.0,3.0,73,0.00,,,0.00,Wunderground v.1.15,2013-02-21 10:06:00,
2013-02-21 05:15:00,21.4,14.1,30.29,North,357,2.0,3.0,73,0.00,,,0.00,Wunderground v.1.15,2013-02-21 10:15:00,
2013-02-21 05:20:00,21.4,14.1,30.29,NNW,337,2.0,2.0,73,0.00,,,0.00,Wunderground v.1.15,2013-02-21 10:20:00,
2013-02-21 05:25:00,21.4,14.1,30.29,North,0,2.0,3.0,73,0.00,,,0.00,Wunderground v.1.15,2013-02-21 10:25:00,
2013-02-21 05:30:00,21.4,14.1,30.30,North,357,3.0,3.0,73,0.00,,,0.00,Wunderground v.1.15,2013-02-21 10:30:00,
2013-02-21 05:40:00,21.4,14.1,30.30,North,359,2.0,2.0,73,0.00,,,0.00,Wunderground v.1.15,2013-02-21 10:40:00,
2013-02-21 05:45:00,21.4,14.1,30.30,NNW,343,4.0,4.0,73,0.00,,,0.00,Wunderground v.1.15,2013-02-21 10:45:00,
2013-02-21 05:50:00,21.6,14.3,30.30,NNE,32,3.0,3.0,73,0.00,,,0.00,Wunderground v.1.15,2013-02-21 10:50:00,
2013-02-21 05:55:00,21.6,14.3,30.30,North,0,2.0,3.0,73,0.00,,,0.00,Wunderground v.1.15,2013-02-21 10:55:00,
2013-02-21 06:06:00,21.6,14.3,30.31,NNW,340,3.0,3.0,73,0.00,,,0.00,Wunderground v.1.15,2013-02-21 11:06:00,
2013-02-21 06:15:00,21.8,14.5,30.31,North,0,2.0,3.0,73,0.00,,,0.00,Wunderground v.1.15,2013-02-21 11:15:00,
2013-02-21 06:20:00,21.8,14.5,30.31,NNE,17,2.0,2.0,73,0.00,,,0.00,Wunderground v.1.15,2013-02-21 11:20:00,
2013-02-21 06:25:00,21.8,14.5,30.31,NNW,336,2.0,2.0,73,0.00,,,0.00,Wunderground v.1.15,2013-02-21 11:25:00,
2013-02-21 06:30:00,21.8,14.5,30.32,North,353,2.0,2.0,73,0.00,,,0.00,Wunderground v.1.15,2013-02-21 11:30:00,
2013-02-21 06:40:00,21.9,14.6,30.32,NNE,16,3.0,3.0,73,0.00,,,0.00,Wunderground v.1.15,2013-02-21 11:40:00,
2013-02-21 06:45:00,21.9,14.6,30.33,North,1,3.0,3.0,73,0.00,,,0.00,Wunderground v.1.15,2013-02-21 11:45:00,
2013-02-21 06:50:00,21.9,14.6,30.33,North,4,2.0,2.0,73,0.00,,,0.00,Wunderground v.1.15,2013-02-21 11:50:00,
2013-02-21 07:00:00,22.1,14.8,30.33,North,11,2.0,4.0,73,0.00,,,0.00,Wunderground v.1.15,2013-02-21 12:00:00,
2013-02-21 07:06:00,22.1,14.8,30.33,NNE,25,3.0,4.0,73,0.00,,,0.00,Wunderground v.1.15,2013-02-21 12:06:00,
2013-02-21 07:15:00,22.2,14.5,30.33,NNE,25,3.0,4.0,72,0.00,,,0.00,Wunderground v.1.15,2013-02-21 12:15:00,
2013-02-21 07:20:00,22.2,14.5,30.33,NNE,27,3.0,3.0,72,0.00,,,0.00,Wunderground v.1.15,2013-02-21 12:20:00,
2013-02-21 07:25:00,22.2,14.5,30.33,NE,42,3.0,6.0,72,0.00,,,0.00,Wunderground v.1.15,2013-02-21 12:25:00,
2013-02-21 07:30:00,22.2,14.5,30.32,NE,51,3.0,3.0,72,0.00,,,0.00,Wunderground v.1.15,2013-02-21 12:30:00,
2013-02-21 07:40:00,22.2,14.5,30.32,North,0,4.0,4.0,72,0.00,,,0.00,Wunderground v.1.15,2013-02-21 12:40:00,
2013-02-21 07:45:00,22.2,14.5,30.31,NE,52,4.0,5.0,72,0.00,,,0.00,Wunderground v.1.15,2013-02-21 12:45:00,
2013-02-21 07:50:00,22.2,14.5,30.31,NNE,27,3.0,3.0,72,0.00,,,0.00,Wunderground v.1.15,2013-02-21 12:50:00,
2013-02-21 08:00:00,22.2,14.5,30.31,NNE,17,4.0,6.0,72,0.00,,,0.00,Wunderground v.1.15,2013-02-21 13:00:00,
2013-02-21 08:06:00,22.2,14.5,30.31,NNE,17,4.0,11.0,72,0.00,,,0.00,Wunderground v.1.15,2013-02-21 13:06:00,
2013-02-21 08:15:00,22.1,14.4,30.29,NE,34,6.0,6.0,72,0.00,,,0.00,Wunderground v.1.15,2013-02-21 13:15:00,
2013-02-21 08:20:00,22.2,14.5,30.29,NE,45,5.0,7.0,72,0.00,,,0.00,Wunderground v.1.15,2013-02-21 13:20:00,
2013-02-21 08:25:00,22.2,14.5,30.29,NE,52,5.0,7.0,72,0.00,,,0.00,Wunderground v.1.15,2013-02-21 13:25:00,
2013-02-21 08:30:00,22.2,14.5,30.29,North,6,4.0,4.0,72,0.00,,,0.00,Wunderground v.1.15,2013-02-21 13:30:00,
2013-02-21 08:40:00,22.5,15.1,30.29,NNE,18,2.0,2.0,73,0.00,,,0.00,Wunderground v.1.15,2013-02-21 13:40:00,
2013-02-21 08:45:00,22.5,14.8,30.31,NNE,13,4.0,5.0,72,0.00,,,0.00,Wunderground v.1.15,2013-02-21 13:45:00,
2013-02-21 08:50:00,22.5,14.8,30.31,ENE,65,4.0,4.0,72,0.00,,,0.00,Wunderground v.1.15,2013-02-21 13:50:00,
2013-02-21 08:55:00,22.5,14.8,30.31,NE,35,3.0,4.0,72,0.00,,,0.00,Wunderground v.1.15,2013-02-21 13:55:00,
2013-02-21 09:05:00,22.5,14.8,30.31,NNE,16,5.0,6.0,72,0.00,,,0.00,Wunderground v.1.15,2013-02-21 14:05:00,
2013-02-21 09:15:00,22.7,15.0,30.33,North,0,3.0,6.0,72,0.00,,,0.00,Wunderground v.1.15,2013-02-21 14:15:00,
2013-02-21 09:20:00,22.9,15.2,30.33,North,1,3.0,3.0,72,0.00,,,0.00,Wunderground v.1.15,2013-02-21 14:20:00,
2013-02-21 09:25:00,22.9,15.2,30.33,North,4,3.0,5.0,72,0.00,,,0.00,Wunderground v.1.15,2013-02-21 14:25:00,
2013-02-21 09:30:00,22.9,15.2,30.33,NNE,13,4.0,4.0,72,0.00,,,0.00,Wunderground v.1.15,2013-02-21 14:30:00,
2013-02-21 09:35:00,22.9,15.2,30.33,NNE,20,4.0,4.0,72,0.00,,,0.00,Wunderground v.1.15,2013-02-21 14:35:00,
2013-02-21 09:45:00,22.9,14.9,30.33,NE,49,4.0,4.0,71,0.00,,,0.00,Wunderground v.1.15,2013-02-21 14:45:00,
2013-02-21 09:50:00,23.0,15.0,30.33,ESE,106,3.0,3.0,71,0.00,,,0.00,Wunderground v.1.15,2013-02-21 14:50:00,
2013-02-21 09:55:00,23.2,15.2,30.33,NNE,32,2.0,3.0,71,0.00,,,0.00,Wunderground v.1.15,2013-02-21 14:55:00,
2013-02-21 10:05:00,23.3,15.3,30.31,NE,34,2.0,3.0,71,0.00,,,0.00,Wunderground v.1.15,2013-02-21 15:05:00,
2013-02-21 10:15:00,23.6,15.2,30.32,NNE,25,2.0,2.0,70,0.00,,,0.00,Wunderground v.1.15,2013-02-21 15:15:00,
2013-02-21 10:25:00,23.8,15.4,30.32,North,349,1.0,2.0,70,0.00,,,0.00,Wunderground v.1.15,2013-02-21 15:25:00,
2013-02-21 10:30:00,23.9,15.5,30.33,North,349,1.0,1.0,70,0.00,,,0.00,Wunderground v.1.15,2013-02-21 15:30:00,
2013-02-21 10:40:00,23.9,15.5,30.33,ESE,107,1.0,1.0,70,0.00,,,0.00,Wunderground v.1.15,2013-02-21 15:40:00,
2013-02-21 10:45:00,24.1,15.7,30.33,NE,48,2.0,2.0,70,0.00,,,0.00,Wunderground v.1.15,2013-02-21 15:45:00,
2013-02-21 10:50:00,24.2,15.5,30.33,East,100,1.0,3.0,69,0.00,,,0.00,Wunderground v.1.15,2013-02-21 15:50:00,
2013-02-21 10:55:00,24.2,15.5,30.33,East,100,1.0,3.0,69,0.00,,,0.00,Wunderground v.1.15,2013-02-21 15:55:00,
2013-02-21 11:06:00,24.5,15.4,30.32,ESE,107,2.0,3.0,68,0.00,,,0.00,Wunderground v.1.15,2013-02-21 16:06:00,
2013-02-21 11:15:00,24.7,15.6,30.32,ESE,104,2.0,3.0,68,0.00,,,0.00,Wunderground v.1.15,2013-02-21 16:15:00,
2013-02-21 11:20:00,24.7,15.6,30.32,North,11,2.0,2.0,68,0.00,,,0.00,Wunderground v.1.15,2013-02-21 16:20:00,
2013-02-21 11:25:00,24.8,15.4,30.32,NE,48,2.0,2.0,67,0.00,,,0.00,Wunderground v.1.15,2013-02-21 16:25:00,
2013-02-21 11:30:00,24.8,15.4,30.33,East,88,2.0,2.0,67,0.00,,,0.00,Wunderground v.1.15,2013-02-21 16:30:00,
2013-02-21 11:40:00,25.0,14.9,30.33,ENE,69,3.0,3.0,65,0.00,,,0.00,Wunderground v.1.15,2013-02-21 16:40:00,
2013-02-21 11:45:00,25.0,14.9,30.34,ENE,78,3.0,3.0,65,0.00,,,0.00,Wunderground v.1.15,2013-02-21 16:45:00,
2013-02-21 11:50:00,25.3,15.2,30.34,ENE,59,2.0,2.0,65,0.00,,,0.00,Wunderground v.1.15,2013-02-21 16:50:00,
2013-02-21 12:00:00,25.1,14.6,30.34,East,82,2.0,2.0,64,0.00,,,0.00,Wunderground v.1.15,2013-02-21 17:00:00,
2013-02-21 12:06:00,25.3,15.2,30.34,East,99,2.0,2.0,65,0.00,,,0.00,Wunderground v.1.15,2013-02-21 17:06:00,
2013-02-21 12:15:00,25.3,14.8,30.32,East,88,2.0,2.0,64,0.00,,,0.00,Wunderground v.1.15,2013-02-21 17:15:00,
2013-02-21 12:20:00,25.4,15.3,30.32,ENE,62,2.0,2.0,65,0.00,,,0.00,Wunderground v.1.15,2013-02-21 17:20:00,
2013-02-21 12:25:00,25.4,15.3,30.32,NE,47,3.0,3.0,65,0.00,,,0.00,Wunderground v.1.15,2013-02-21 17:25:00,
2013-02-21 12:35:00,25.6,15.5,30.33,ENE,76,2.0,3.0,65,0.00,,,0.00,Wunderground v.1.15,2013-02-21 17:35:00,
2013-02-21 12:40:00,25.6,15.1,30.33,North,6,2.0,2.0,64,0.00,,,0.00,Wunderground v.1.15,2013-02-21 17:40:00,
2013-02-21 12:45:00,25.6,15.5,30.34,ESE,104,2.0,2.0,65,0.00,,,0.00,Wunderground v.1.15,2013-02-21 17:45:00,
2013-02-21 12:50:00,25.8,15.6,30.34,SE,126,1.0,1.0,65,0.00,,,0.00,Wunderground v.1.15,2013-02-21 17:50:00,
2013-02-21 13:00:00,26.1,15.2,30.34,ESE,116,2.0,3.0,63,0.00,,,0.00,Wunderground v.1.15,2013-02-21 18:00:00,
2013-02-21 13:06:00,26.3,15.0,30.34,NE,52,2.0,3.0,62,0.00,,,0.00,Wunderground v.1.15,2013-02-21 18:06:00,
2013-02-21 13:15:00,26.0,14.8,30.32,East,99,2.0,3.0,62,0.00,,,0.00,Wunderground v.1.15,2013-02-21 18:15:00,
2013-02-21 13:20:00,26.0,15.1,30.32,ENE,62,2.0,2.0,63,0.00,,,0.00,Wunderground v.1.15,2013-02-21 18:20:00,
2013-02-21 13:25:00,25.8,14.9,30.32,NE,51,2.0,6.0,63,0.00,,,0.00,Wunderground v.1.15,2013-02-21 18:25:00,
2013-02-21 13:35:00,25.8,14.9,30.32,ENE,59,3.0,3.0,63,0.00,,,0.00,Wunderground v.1.15,2013-02-21 18:35:00,
2013-02-21 13:40:00,26.1,15.6,30.32,NE,51,1.0,1.0,64,0.00,,,0.00,Wunderground v.1.15,2013-02-21 18:40:00,
2013-02-21 13:45:00,26.4,15.9,30.30,NE,42,1.0,1.0,64,0.00,,,0.00,Wunderground v.1.15,2013-02-21 18:45:00,
2013-02-21 13:50:00,26.4,15.1,30.30,East,85,2.0,2.0,62,0.00,,,0.00,Wunderground v.1.15,2013-02-21 18:50:00,
2013-02-21 14:00:00,26.4,15.5,30.29,NE,44,2.0,3.0,63,0.00,,,0.00,Wunderground v.1.15,2013-02-21 19:00:00,
2013-02-21 14:06:00,26.4,15.5,30.29,ENE,71,3.0,3.0,63,0.00,,,0.00,Wunderground v.1.15,2013-02-21 19:06:00,
2013-02-21 14:15:00,26.3,16.1,30.28,NE,51,3.0,3.0,65,0.00,,,0.00,Wunderground v.1.15,2013-02-21 19:15:00,
2013-02-21 14:20:00,26.6,16.1,30.28,ENE,59,2.0,3.0,64,0.00,,,0.00,Wunderground v.1.15,2013-02-21 19:20:00,
2013-02-21 14:25:00,26.6,15.7,30.28,NE,44,3.0,3.0,63,0.00,,,0.00,Wunderground v.1.15,2013-02-21 19:25:00,
2013-02-21 14:35:00,26.9,16.0,30.28,ESE,106,3.0,4.0,63,0.00,,,0.00,Wunderground v.1.15,2013-02-21 19:35:00,
2013-02-21 14:40:00,26.7,15.8,30.28,ESE,114,3.0,3.0,63,0.00,,,0.00,Wunderground v.1.15,2013-02-21 19:40:00,
2013-02-21 14:45:00,26.7,15.8,30.28,East,95,3.0,3.0,63,0.00,,,0.00,Wunderground v.1.15,2013-02-21 19:45:00,
2013-02-21 14:55:00,26.7,15.8,30.28,NNE,28,3.0,3.0,63,0.00,,,0.00,Wunderground v.1.15,2013-02-21 19:55:00,
2013-02-21 15:00:00,26.9,15.6,30.25,East,89,3.0,3.0,62,0.00,,,0.00,Wunderground v.1.15,2013-02-21 20:00:00,
2013-02-21 15:06:00,26.7,15.4,30.25,ESE,107,3.0,4.0,62,0.00,,,0.00,Wunderground v.1.15,2013-02-21 20:06:00,
2013-02-21 15:15:00,26.4,15.1,30.25,SE,128,4.0,4.0,62,0.00,,,0.00,Wunderground v.1.15,2013-02-21 20:15:00,
2013-02-21 15:20:00,26.1,14.5,30.25,ESE,103,4.0,6.0,61,0.00,,,0.00,Wunderground v.1.15,2013-02-21 20:20:00,
2013-02-21 15:25:00,26.1,14.8,30.25,East,93,5.0,6.0,62,0.00,,,0.00,Wunderground v.1.15,2013-02-21 20:25:00,
2013-02-21 15:35:00,25.7,14.5,30.22,ESE,116,5.0,5.0,62,0.00,,,0.00,Wunderground v.1.15,2013-02-21 20:35:00,
2013-02-21 15:40:00,25.7,14.5,30.22,East,86,5.0,5.0,62,0.00,,,0.00,Wunderground v.1.15,2013-02-21 20:40:00,
2013-02-21 15:45:00,25.7,14.5,30.23,East,93,5.0,6.0,62,0.00,,,0.00,Wunderground v.1.15,2013-02-21 20:45:00,
2013-02-21 15:55:00,25.6,14.0,30.23,ESE,107,5.0,5.0,61,0.00,,,0.00,Wunderground v.1.15,2013-02-21 20:55:00,
2013-02-21 16:00:00,25.4,14.2,30.25,SE,128,5.0,5.0,62,0.00,,,0.00,Wunderground v.1.15,2013-02-21 21:00:00,
2013-02-21 16:06:00,25.3,14.1,30.25,ESE,121,5.0,9.0,62,0.00,,,0.00,Wunderground v.1.15,2013-02-21 21:06:00,
2013-02-21 16:15:00,25.4,14.2,30.27,NE,54,4.0,5.0,62,0.00,,,0.00,Wunderground v.1.15,2013-02-21 21:15:00,
2013-02-21 16:25:00,25.1,13.9,30.27,ESE,110,3.0,4.0,62,0.00,,,0.00,Wunderground v.1.15,2013-02-21 21:25:00,
2013-02-21 16:30:00,25.1,13.5,30.28,NE,49,3.0,6.0,61,0.00,,,0.00,Wunderground v.1.15,2013-02-21 21:30:00,
2013-02-21 16:35:00,25.0,13.4,30.28,ENE,73,3.0,6.0,61,0.00,,,0.00,Wunderground v.1.15,2013-02-21 21:35:00,
2013-02-21 16:40:00,25.0,13.4,30.28,East,92,3.0,3.0,61,0.00,,,0.00,Wunderground v.1.15,2013-02-21 21:40:00,
2013-02-21 16:50:00,24.8,13.2,30.28,East,83,3.0,4.0,61,0.00,,,0.00,Wunderground v.1.15,2013-02-21 21:50:00,
2013-02-21 16:55:00,24.8,13.2,30.28,East,97,4.0,4.0,61,0.00,,,0.00,Wunderground v.1.15,2013-02-21 21:55:00,
2013-02-21 17:00:00,25.0,13.4,30.28,ESE,121,3.0,3.0,61,0.00,,,0.00,Wunderground v.1.15,2013-02-21 22:00:00,
2013-02-21 17:05:00,24.8,12.9,30.28,ESE,119,3.0,6.0,60,0.00,,,0.00,Wunderground v.1.15,2013-02-21 22:05:00,
2013-02-21 17:15:00,24.4,12.9,30.27,SE,124,5.0,5.0,61,0.00,,,0.00,Wunderground v.1.15,2013-02-21 22:15:00,
2013-02-21 17:25:00,24.1,12.9,30.27,SE,126,4.0,6.0,62,0.00,,,0.00,Wunderground v.1.15,2013-02-21 22:25:00,
2013-02-21 17:30:00,23.9,12.8,30.27,ESE,107,4.0,6.0,62,0.00,,,0.00,Wunderground v.1.15,2013-02-21 22:30:00,
2013-02-21 17:40:00,23.9,13.1,30.27,ENE,73,3.0,3.0,63,0.00,,,0.00,Wunderground v.1.15,2013-02-21 22:40:00,
2013-02-21 17:45:00,23.8,13.0,30.27,NNE,24,3.0,3.0,63,0.00,,,0.00,Wunderground v.1.15,2013-02-21 22:45:00,
2013-02-21 17:50:00,23.8,13.0,30.27,East,93,3.0,3.0,63,0.00,,,0.00,Wunderground v.1.15,2013-02-21 22:50:00,
2013-02-21 17:55:00,23.6,12.8,30.27,East,90,3.0,3.0,63,0.00,,,0.00,Wunderground v.1.15,2013-02-21 22:55:00,
2013-02-21 18:06:00,23.5,13.1,30.27,ESE,116,3.0,4.0,64,0.00,,,0.00,Wunderground v.1.15,2013-02-21 23:06:00,
2013-02-21 18:15:00,23.2,13.2,30.27,East,99,3.0,3.0,65,0.00,,,0.00,Wunderground v.1.15,2013-02-21 23:15:00,
2013-02-21 18:20:00,23.2,13.2,30.27,ESE,117,4.0,4.0,65,0.00,,,0.00,Wunderground v.1.15,2013-02-21 23:20:00,
2013-02-21 18:25:00,23.0,13.0,30.27,East,96,4.0,10.0,65,0.00,,,0.00,Wunderground v.1.15,2013-02-21 23:25:00,
2013-02-21 18:30:00,22.7,12.7,30.27,ESE,113,4.0,4.0,65,0.00,,,0.00,Wunderground v.1.15,2013-02-21 23:30:00,
2013-02-21 18:35:00,22.5,12.5,30.27,ESE,110,5.0,5.0,65,0.00,,,0.00,Wunderground v.1.15,2013-02-21 23:35:00,
2013-02-21 18:45:00,22.2,12.6,30.26,ESE,106,3.0,4.0,66,0.00,,,0.00,Wunderground v.1.15,2013-02-21 23:45:00,
2013-02-21 18:50:00,22.2,12.6,30.26,East,90,4.0,4.0,66,0.00,,,0.00,Wunderground v.1.15,2013-02-21 23:50:00,
2013-02-21 18:55:00,22.1,12.5,30.26,ESE,113,4.0,7.0,66,0.00,,,0.00,Wunderground v.1.15,2013-02-21 23:55:00,
2013-02-21 19:00:00,21.9,12.6,30.26,SE,130,5.0,6.0,67,0.00,,,0.00,Wunderground v.1.15,2013-02-22 00:00:00,
2013-02-21 19:05:00,21.8,12.5,30.26,ESE,109,5.0,6.0,67,0.00,,,0.00,Wunderground v.1.15,2013-02-22 00:05:00,
2013-02-21 19:15:00,21.6,12.3,30.25,ENE,62,4.0,6.0,67,0.00,,,0.00,Wunderground v.1.15,2013-02-22 00:15:00,
2013-02-21 19:20:00,21.6,12.3,30.25,East,100,4.0,4.0,67,0.00,,,0.00,Wunderground v.1.15,2013-02-22 00:20:00,
2013-02-21 19:25:00,21.6,12.3,30.25,East,100,4.0,4.0,67,0.00,,,0.00,Wunderground v.1.15,2013-02-22 00:25:00,
2013-02-21 19:30:00,21.6,12.3,30.26,ESE,121,4.0,4.0,67,0.00,,,0.00,Wunderground v.1.15,2013-02-22 00:30:00,
2013-02-21 19:35:00,21.6,12.3,30.26,East,99,5.0,6.0,67,0.00,,,0.00,Wunderground v.1.15,2013-02-22 00:35:00,
2013-02-21 19:45:00,21.4,12.1,30.25,ESE,106,5.0,6.0,67,0.00,,,0.00,Wunderground v.1.15,2013-02-22 00:45:00,
2013-02-21 19:50:00,21.4,12.1,30.25,ENE,72,4.0,4.0,67,0.00,,,0.00,Wunderground v.1.15,2013-02-22 00:50:00,
2013-02-21 19:55:00,21.4,12.1,30.25,ESE,119,5.0,16.0,67,0.00,,,0.00,Wunderground v.1.15,2013-02-22 00:55:00,
2013-02-21 20:06:00,21.3,12.0,30.24,East,99,6.0,6.0,67,0.00,,,0.00,Wunderground v.1.15,2013-02-22 01:06:00,
2013-02-21 20:15:00,21.3,11.7,30.25,SE,127,6.0,7.0,66,0.00,,,0.00,Wunderground v.1.15,2013-02-22 01:15:00,
2013-02-21 20:20:00,21.3,11.4,30.25,ESE,113,6.0,7.0,65,0.00,,,0.00,Wunderground v.1.15,2013-02-22 01:20:00,
2013-02-21 20:25:00,21.3,11.4,30.25,SE,126,6.0,7.0,65,0.00,,,0.00,Wunderground v.1.15,2013-02-22 01:25:00,
2013-02-21 20:30:00,21.3,11.4,30.23,ESE,114,6.0,6.0,65,0.00,,,0.00,Wunderground v.1.15,2013-02-22 01:30:00,
2013-02-21 20:40:00,21.1,11.2,30.23,ESE,112,4.0,4.0,65,0.00,,,0.00,Wunderground v.1.15,2013-02-22 01:40:00,
2013-02-21 20:45:00,21.1,11.2,30.23,ESE,104,5.0,5.0,65,0.00,,,0.00,Wunderground v.1.15,2013-02-22 01:45:00,
2013-02-21 20:50:00,21.1,11.2,30.23,SE,128,5.0,5.0,65,0.00,,,0.00,Wunderground v.1.15,2013-02-22 01:50:00,
2013-02-21 20:55:00,21.1,11.2,30.23,SE,124,5.0,7.0,65,0.00,,,0.00,Wunderground v.1.15,2013-02-22 01:55:00,
2013-02-21 21:06:00,21.1,11.2,30.22,ESE,102,6.0,6.0,65,0.00,,,0.00,Wunderground v.1.15,2013-02-22 02:06:00,
2013-02-21 21:15:00,21.0,11.1,30.21,East,95,5.0,6.0,65,0.00,,,0.00,Wunderground v.1.15,2013-02-22 02:15:00,
2013-02-21 21:20:00,21.0,11.4,30.21,NE,45,5.0,5.0,66,0.00,,,0.00,Wunderground v.1.15,2013-02-22 02:20:00,
2013-02-21 21:25:00,21.0,11.4,30.21,East,80,4.0,5.0,66,0.00,,,0.00,Wunderground v.1.15,2013-02-22 02:25:00,
2013-02-21 21:30:00,20.8,11.2,30.21,ESE,112,4.0,8.0,66,0.00,,,0.00,Wunderground v.1.15,2013-02-22 02:30:00,
2013-02-21 21:40:00,20.8,10.9,30.21,ESE,104,6.0,6.0,65,0.00,,,0.00,Wunderground v.1.15,2013-02-22 02:40:00,
2013-02-21 21:45:00,20.8,11.2,30.21,ESE,114,6.0,10.0,66,0.00,,,0.00,Wunderground v.1.15,2013-02-22 02:45:00,
2013-02-21 21:50:00,20.8,11.2,30.21,ESE,106,5.0,5.0,66,0.00,,,0.00,Wunderground v.1.15,2013-02-22 02:50:00,
2013-02-21 22:00:00,20.8,11.2,30.20,ENE,66,6.0,6.0,66,0.00,,,0.00,Wunderground v.1.15,2013-02-22 03:00:00,
2013-02-21 22:05:00,20.6,11.0,30.20,ENE,65,6.0,6.0,66,0.00,,,0.00,Wunderground v.1.15,2013-02-22 03:05:00,
2013-02-21 22:15:00,20.6,11.0,30.20,SE,127,5.0,7.0,66,0.00,,,0.00,Wunderground v.1.15,2013-02-22 03:15:00,
2013-02-21 22:20:00,20.5,11.3,30.20,East,90,4.0,5.0,67,0.00,,,0.00,Wunderground v.1.15,2013-02-22 03:20:00,
2013-02-21 22:25:00,20.5,11.3,30.20,ESE,102,5.0,5.0,67,0.00,,,0.00,Wunderground v.1.15,2013-02-22 03:25:00,
2013-02-21 22:30:00,20.5,11.3,30.19,East,100,6.0,7.0,67,0.00,,,0.00,Wunderground v.1.15,2013-02-22 03:30:00,
2013-02-21 22:40:00,20.5,11.6,30.19,ESE,110,6.0,7.0,68,0.00,,,0.00,Wunderground v.1.15,2013-02-22 03:40:00,
2013-02-21 22:45:00,20.5,11.6,30.18,SE,127,6.0,17.0,68,0.00,,,0.00,Wunderground v.1.15,2013-02-22 03:45:00,
2013-02-21 22:50:00,20.5,11.9,30.18,ESE,103,6.0,7.0,69,0.00,,,0.00,Wunderground v.1.15,2013-02-22 03:50:00,
2013-02-21 23:00:00,20.5,11.9,30.16,East,93,7.0,7.0,69,0.00,,,0.00,Wunderground v.1.15,2013-02-22 04:00:00,
2013-02-21 23:06:00,20.5,12.3,30.16,East,97,7.0,7.0,70,0.00,,,0.00,Wunderground v.1.15,2013-02-22 04:06:00,
2013-02-21 23:15:00,20.3,12.1,30.15,ESE,112,7.0,16.0,70,0.00,,,0.00,Wunderground v.1.15,2013-02-22 04:15:00,
2013-02-21 23:20:00,20.3,12.1,30.15,ESE,119,9.0,9.0,70,0.00,,,0.00,Wunderground v.1.15,2013-02-22 04:20:00,
2013-02-21 23:25:00,20.3,12.1,30.15,ESE,117,8.0,14.0,70,0.00,,,0.00,Wunderground v.1.15,2013-02-22 04:25:00,
2013-02-21 23:30:00,20.3,12.1,30.14,East,93,8.0,8.0,70,0.00,,,0.00,Wunderground v.1.15,2013-02-22 04:30:00,
2013-02-21 23:40:00,20.3,12.1,30.14,East,100,9.0,9.0,70,0.00,,,0.00,Wunderground v.1.15,2013-02-22 04:40:00,
2013-02-21 23:45:00,20.3,12.1,30.13,East,97,8.0,10.0,70,0.00,,,0.00,Wunderground v.1.15,2013-02-22 04:45:00,
2013-02-21 23:50:00,20.3,12.1,30.13,ESE,119,8.0,8.0,70,0.00,,,0.00,Wunderground v.1.15,2013-02-22 04:50:00,
2013-02-21 23:55:00,20.3,12.1,30.13,ESE,104,8.0,14.0,70,0.00,,,0.00,Wunderground v.1.15,2013-02-22 04:55:00,